STARLINK-2389 (47808 NORAD) Tracking and Keplerian Element Data

This shows tracking and keplerian element data for the satellite.

Feedback or suggestion? Click here.




ElementValue
Catalog47808
NameSTARLINK-2389
Epoch Orbit1683
Epoch Day170.41239573
Epoch Year2021
RAAN67.1887
Inclination53.0559
Eccentricity0.0001931
Argument of Perigee82.0035
Mean Anonmoly278.1173
Mean Motion15.06382475
Decay Rate-1.218E-05
L11 47808U 21018X 21170.41239573 -.00001218 00000-0 -62897-4 0 9994
L22 47808 53.0559 67.1887 0001931 82.0035 278.1173 15.06382475 16833

Live tracking and technical data element details for STARLINK-2389 (NORAD 47808). STARLINK-2389 can be tracked NOW for your location showing map with azimuth and elevation plus other details from your city location.

Track the satellite on the map from your city or location and see movement details for azimuth, elevation, latitude, longitude, range, height, and movement on the map or in text.







IsCatalogInMostPopularTable: catalog: 47808, numindb: 43
Update: records affected: 1



GetName: 47808 STARLINK-2389

Hit Count: updated at: Mon, 21 Jun 2021 03:59:22 GMT